This is the latest recevied weather packets stored in our database for station/object DM4XI-13. If no packets are shown the sender has not sent any weather packets the latest 10 day(s).
| Time | Temp. | Humidity | Pressure | Rain* | Wind** | Luminosity | Snow |
|---|---|---|---|---|---|---|---|
| 1777841849 | 18.89° C | 45% | 1010.4 hPa | 0 mm | 0.89 m/s, 274° | 0 W/m² | - |
| 1777841788 | 18.89° C | 45% | 1010.5 hPa | 0 mm | 0.89 m/s, 273° | 0 W/m² | - |
| 1777841727 | 18.89° C | 45% | 1010.6 hPa | 0 mm | 1.34 m/s, 301° | 0 W/m² | - |
| 1777841666 | 18.89° C | 45% | 1010.6 hPa | 0 mm | 0.45 m/s, 246° | 0 W/m² | - |
| 1777841605 | 18.89° C | 45% | 1010.6 hPa | 0 mm | 0.89 m/s, 269° | 0 W/m² | - |
| 1777841544 | 18.89° C | 45% | 1010.4 hPa | 0 mm | 0.89 m/s, 287° | 0 W/m² | - |
| 1777841483 | 18.89° C | 45% | 1010.7 hPa | 0 mm | 0.89 m/s, 271° | 0 W/m² | - |
| 1777841423 | 18.89° C | 45% | 1010.4 hPa | 0 mm | 0.89 m/s, 283° | 0 W/m² | - |
| 1777841361 | 18.89° C | 45% | 1010.6 hPa | 0 mm | 0.45 m/s, 266° | 0 W/m² | - |
| 1777841300 | 18.89° C | 45% | 1010.5 hPa | 0 mm | 0.89 m/s, 327° | 0 W/m² | - |
| 1777841239 | 18.89° C | 45% | 1010.5 hPa | 0 mm | 0.45 m/s, 241° | 0 W/m² | - |
| 1777841179 | 18.89° C | 45% | 1010.6 hPa | 0 mm | 0.89 m/s, 284° | 0 W/m² | - |
| 1777841117 | 18.89° C | 44% | 1010.6 hPa | 0 mm | 0.89 m/s, 303° | 0 W/m² | - |
| 1777841056 | 18.89° C | 44% | 1010.5 hPa | 0 mm | 0.89 m/s, 308° | 0 W/m² | - |
| 1777840995 | 19.44° C | 45% | 1010.5 hPa | 0 mm | 0.89 m/s, 284° | 0 W/m² | - |
| 1777840934 | 19.44° C | 44% | 1010.4 hPa | 0 mm | 0.89 m/s, 301° | 0 W/m² | - |
| 1777840873 | 19.44° C | 44% | 1010.3 hPa | 0 mm | 0.45 m/s, 292° | 0 W/m² | - |
| 1777840812 | 19.44° C | 44% | 1010.3 hPa | 0 mm | 0.89 m/s, 4° | 0 W/m² | - |
| 1777840751 | 19.44° C | 44% | 1010.4 hPa | 0 mm | 1.79 m/s, 264° | 0 W/m² | - |
| 1777840690 | 19.44° C | 44% | 1010.5 hPa | 0 mm | 1.34 m/s, 295° | 0 W/m² | - |
| 1777840629 | 19.44° C | 44% | 1010.4 hPa | 0 mm | 0.45 m/s, 292° | 0 W/m² | - |
| 1777840568 | 19.44° C | 44% | 1010.3 hPa | 0 mm | 1.34 m/s, 287° | 0 W/m² | - |
| 1777840507 | 19.44° C | 44% | 1010.5 hPa | 0 mm | 0.89 m/s, 308° | 0 W/m² | - |
| 1777840446 | 19.44° C | 44% | 1010.3 hPa | 0 mm | 0.89 m/s, 266° | 0 W/m² | - |
| 1777840386 | 19.44° C | 44% | 1010.2 hPa | 0 mm | 1.34 m/s, 332° | 0 W/m² | - |
* Rain latest hour (hover to see other rain measurements)
** Current wind speed in m/s (hover to see current wind gust speed)